sat.trackr.live / text

‹ back to catalog

STARLINK-1151

NORAD 45081 · 2020-006AP

PAYLOAD ACTIVE UNKNOWN

§ Identity

Operator
Country
US
Launch date
2020-01-29
Launch site
AFETR
Launch vehicle
Mass (kg)
RCS (m²)

Purposes: comms

External: N2YO · Heavens-Above · Gunter

§ Orbital elements

Epoch: 2026-07-31T23:26:11.139648Z

Period
87.39 min
Inclination
53.0284°
Eccentricity
0.0005967
Mean motion
16.47820578 rev/d
Perigee alt
141.2 km
Apogee alt
149.0 km
Semi-major
6,523.2 km
B*
1.9965e-4
RAAN
233.3602°
Arg perigee
274.7767°
Mean anomaly
85.2601°
Rev number
35,996

§ Raw data

STARLINK-11511 45081U 20006AP  26212.97651782  .12214847  12588-4  19965-3 0  99942 45081  53.0284 233.3602 0005967 274.7767  85.2601 16.47820578359960

JSON: /api/v1/satellites/45081 · /tle

For live sub-satellite position, see the globe view (requires WebGL).

§ Visibility from observer

Set your observer location to see the next 7 days of passes ≥ 10°. The values pass through the URL so the page stays shareable.

No JS? Fill the form by hand. The geolocation button needs JavaScript.